FW2104 Weather Reports


Display with metric or nautical units.
time (UTC)temp
F
wind
direction
speed
MPH
gust
MPH
rain 1hr
in
rain 24hr
in
rain mn
in
humidity
%
barometer
mb
20260906224923 97 202 3.0 5.0 0.00 0.00 0.00 42 1013.7
20260906224418 98 22 3.0 8.0 0.00 0.00 0.00 42 1013.8
20260906223914 98 158 4.0 8.0 0.00 0.00 0.00 42 1013.8
20260906223404 98 248 4.0 5.0 0.00 0.00 0.00 42 1013.8
20260906222835 98 135 2.0 5.0 0.00 0.00 0.00 42 1013.8
20260906222320 98 135 2.0 7.0 0.00 0.00 0.00 42 1013.9
20260906221815 98 180 4.0 7.0 0.00 0.00 0.00 42 1013.9
20260906221239 98 158 3.0 5.0 0.00 0.00 0.00 41 1013.9
20260906220717 99 45 4.0 5.0 0.00 0.00 0.00 41 1013.7
20260906220433 99 45 3.0 8.0 0.00 0.00 0.00 42 1013.7
20260906215703 98 225 4.0 9.0 0.00 0.00 0.00 41 1013.7
20260906215148 99 45 4.0 9.0 0.00 0.00 0.00 41 1013.7
20260906214644 99 338 3.0 6.0 0.00 0.00 0.00 41 1013.9
20260906214115 99 90 3.0 6.0 0.00 0.00 0.00 41 1013.9
20260906214050 99 112 4.0 6.0 0.00 0.00 0.00 43 1013.9
20260906213100 99 0 3.0 5.0 0.00 0.00 0.00 43 1014.0
20260906212545 100 158 3.0 6.0 0.00 0.00 0.00 41 1014.0
20260906212040 99 112 3.0 7.0 0.00 0.00 0.00 40 1014.2
20260906211510 100 202 5.0 7.0 0.00 0.00 0.00 40 1014.2
20260906210957 101 68 3.0 6.0 0.00 0.00 0.00 40 1014.5
20260906210718 101 45 3.0 5.0 0.00 0.00 0.00 40 1014.5
20260906205915 101 45 4.0 5.0 0.00 0.00 0.00 40 1014.6
20260906205414 101 22 3.0 7.0 0.00 0.00 0.00 40 1014.6
20260906205127 101 225 4.0 7.0 0.00 0.00 0.00 40 1014.6
20260906204404 102 270 4.0 5.0 0.00 0.00 0.00 39 1014.8
20260906203854 103 112 4.0 5.0 0.00 0.00 0.00 39 1014.8
20260906203340 103 45 3.0 6.0 0.00 0.00 0.00 40 1014.9
20260906203059 102 180 4.0 6.0 0.00 0.00 0.00 40 1014.9
20260906202555 102 68 3.0 7.0 0.00 0.00 0.00 41 1015.0
20260906201820 102 68 4.0 7.0 0.00 0.00 0.00 41 1015.0
20260906201746 101 22 4.0 6.0 0.00 0.00 0.00 41 1015.0
20260906200800 101 248 4.0 6.0 0.00 0.00 0.00 41 1015.1
20260906200257 101 45 3.0 5.0 0.00 0.00 0.00 42 1015.1
20260906195747 101 158 2.0 5.0 0.00 0.00 0.00 42 1015.3
20260906195232 100 112 4.0 7.0 0.00 0.00 0.00 42 1015.3
20260906194727 101 112 4.0 7.0 0.00 0.00 0.00 42 1015.4
20260906194222 100 135 3.0 8.0 0.00 0.00 0.00 43 1015.4
20260906193713 103 225 4.0 8.0 0.00 0.00 0.00 40 1015.4
20260906193159 104 90 3.0 5.0 0.00 0.00 0.00 40 1015.5
20260906192653 104 22 3.0 5.0 0.00 0.00 0.00 40 1015.5
20260906192149 103 180 3.0 6.0 0.00 0.00 0.00 40 1015.7
20260906191640 103 270 3.0 6.0 0.00 0.00 0.00 41 1015.7
20260906191057 100 90 2.0 7.0 0.00 0.00 0.00 44 1015.7
20260906190555 101 338 4.0 7.0 0.00 0.00 0.00 43 1015.7
20260906190051 101 112 3.0 5.0 0.00 0.00 0.00 43 1015.7
20260906185747 102 22 3.0 6.0 0.00 0.00 0.00 42 1016.0
20260906185022 102 22 4.0 6.0 0.00 0.00 0.00 42 1016.0
20260906184740 101 135 3.0 4.0 0.00 0.00 0.00 43 1016.0
20260906184017 102 180 3.0 6.0 0.00 0.00 0.00 43 1016.0
20260906183512 104 180 3.0 6.0 0.00 0.00 0.00 42 1016.1
20260906183002 103 225 3.0 5.0 0.00 0.00 0.00 42 1016.1
20260906182447 103 202 3.0 5.0 0.00 0.00 0.00 43 1016.1
20260906181943 102 202 3.0 5.0 0.00 0.00 0.00 43 1016.3
20260906181703 101 45 3.0 7.0 0.00 0.00 0.00 45 1016.3
20260906180928 101 135 4.0 7.0 0.00 0.00 0.00 44 1016.6
20260906180413 101 112 3.0 7.0 0.00 0.00 0.00 45 1016.6
20260906180130 102 180 4.0 7.0 0.00 0.00 0.00 45 1016.8
20260906175341 101 158 3.0 4.0 0.00 0.00 0.00 46 1016.8
20260906174836 101 68 2.0 4.0 0.00 0.00 0.00 46 1016.8
20260906174325 100 202 3.0 5.0 0.00 0.00 0.00 47 1017.0
20260906174036 100 202 4.0 5.0 0.00 0.00 0.00 47 1017.0
20260906173306 100 90 2.0 5.0 0.00 0.00 0.00 47 1017.3
20260906172803 99 112 3.0 6.0 0.00 0.00 0.00 49 1017.3
20260906172251 99 45 3.0 6.0 0.00 0.00 0.00 48 1017.3
20260906171736 100 112 3.0 5.0 0.00 0.00 0.00 47 1017.3
20260906171232 100 180 3.0 4.0 0.00 0.00 0.00 47 1017.3
20260906170703 99 248 3.0 5.0 0.00 0.00 0.00 47 1017.4
20260906170135 99 112 3.0 5.0 0.00 0.00 0.00 48 1017.4
20260906165853 99 202 3.0 5.0 0.00 0.00 0.00 48 1017.4
20260906165347 99 158 2.0 4.0 0.00 0.00 0.00 48 1017.4
20260906164605 99 202 2.0 3.0 0.00 0.00 0.00 49 1017.5
20260906164101 99 225 2.0 3.0 0.00 0.00 0.00 50 1017.5
20260906163555 97 270 2.0 4.0 0.00 0.00 0.00 50 1017.5
20260906163311 97 68 3.0 4.0 0.00 0.00 0.00 51 1017.6
20260906162515 96 112 2.0 5.0 0.00 0.00 0.00 52 1017.6
20260906162448 96 22 4.0 5.0 0.00 0.00 0.00 52 1017.4
20260906161457 96 90 2.0 5.0 0.00 0.00 0.00 52 1017.4
20260906160955 96 315 3.0 5.0 0.00 0.00 0.00 53 1017.4
20260906160443 97 338 2.0 6.0 0.00 0.00 0.00 54 1017.4
20260906155900 94 90 2.0 6.0 0.00 0.00 0.00 57 1017.4
20260906155359 94 202 3.0 4.0 0.00 0.00 0.00 57 1017.4
20260906154855 95 180 3.0 4.0 0.00 0.00 0.00 57 1017.4
20260906154351 94 45 2.0 4.0 0.00 0.00 0.00 59 1017.4
20260906153828 94 180 2.0 4.0 0.00 0.00 0.00 60 1017.4
20260906153544 93 22 2.0 4.0 0.00 0.00 0.00 63 1017.4
20260906152819 93 68 2.0 4.0 0.00 0.00 0.00 63 1017.4
20260906152315 92 270 2.0 4.0 0.00 0.00 0.00 64 1017.2
20260906151806 92 135 2.0 3.0 0.00 0.00 0.00 64 1017.2
20260906151251 92 270 2.0 3.0 0.00 0.00 0.00 65 1017.2
20260906150745 91 22 1.0 3.0 0.00 0.00 0.00 66 1017.2
20260906150242 91 90 2.0 3.0 0.00 0.00 0.00 67 1017.2
20260906145732 90 112 2.0 3.0 0.00 0.00 0.00 69 1017.2
20260906145203 91 158 2.0 3.0 0.00 0.00 0.00 69 1017.2
20260906144635 90 202 1.0 3.0 0.00 0.00 0.00 70 1017.3
20260906144106 89 180 1.0 3.0 0.00 0.00 0.00 70 1017.3
20260906143550 88 202 1.0 3.0 0.00 0.00 0.00 72 1017.3
20260906143045 89 90 2.0 3.0 0.00 0.00 0.00 72 1017.4
20260906142541 87 112 2.0 3.0 0.00 0.00 0.00 74 1017.4
20260906142531 88 158 2.0 3.0 0.00 0.00 0.00 73 1017.3
20260906141516 89 0 2.0 2.0 0.00 0.00 0.00 70 1017.3
20260906141011 90 90 1.0 3.0 0.00 0.00 0.00 71 1017.2
20260906140508 89 225 1.0 3.0 0.00 0.00 0.00 72 1017.2
20260906135912 89 0.0 0.0 0.00 0.00 0.00 72 1017.2